Stündliche Wetter Aabenraa

Heute, 18 Juni, Freitag

Zeit Temperatur Niederschläge Wind Luftdruck Luftfeuchtigkeit
00:00 +19°C° 0.1 mm 2 m/S 755 mmHg 95%
01:00 +18°C° 0.1 mm 2 m/S 755 mmHg 95%
02:00 +18°C° 0 mm 2 m/S 755 mmHg 94%
03:00 +17°C° 0 mm 2 m/S 755 mmHg 94%
04:00 +17°C° 0 mm 2 m/S 755 mmHg 93%
05:00 +18°C° 0 mm 2 m/S 755 mmHg 91%
06:00 +19°C° 0 mm 2 m/S 755 mmHg 88%
07:00 +20°C° 0 mm 2 m/S 756 mmHg 86%
08:00 +21°C° 0.2 mm 2 m/S 756 mmHg 83%
09:00 +23°C° 0.2 mm 2 m/S 756 mmHg 80%
10:00 +24°C° 0.2 mm 2 m/S 756 mmHg 77%
11:00 +25°C° 0.3 mm 2 m/S 756 mmHg 75%
12:00 +25°C° 0.3 mm 3 m/S 756 mmHg 73%
13:00 +26°C° 0.3 mm 3 m/S 756 mmHg 71%
14:00 +26°C° 0.1 mm 3 m/S 756 mmHg 71%
15:00 +26°C° 0.1 mm 2 m/S 756 mmHg 71%
16:00 +26°C° 0.1 mm 2 m/S 755 mmHg 71%
17:00 +26°C° 0.1 mm 2 m/S 755 mmHg 75%
18:00 +25°C° 0.1 mm 2 m/S 755 mmHg 80%
19:00 +25°C° 0.1 mm 2 m/S 755 mmHg 84%
20:00 +23°C° 0.4 mm 2 m/S 755 mmHg 88%
21:00 +21°C° 0.4 mm 2 m/S 755 mmHg 92%
22:00 +21°C° 0.4 mm 1 m/S 755 mmHg 96%
23:00 +19°C° 0.1 mm 2 m/S 755 mmHg 96%

Morgen, 19 Juni, Samstag

Zeit Temperatur Niederschläge Wind Luftdruck Luftfeuchtigkeit
00:00 +19°C° 0.1 mm 2 m/S 755 mmHg 95%
01:00 +19°C° 0.1 mm 2 m/S 754 mmHg 95%
02:00 +18°C° 0.1 mm 2 m/S 754 mmHg 96%
03:00 +18°C° 0.1 mm 2 m/S 754 mmHg 96%
04:00 +18°C° 0.1 mm 2 m/S 754 mmHg 96%
05:00 +19°C° 0.1 mm 3 m/S 754 mmHg 94%
06:00 +20°C° 0.1 mm 3 m/S 754 mmHg 93%
07:00 +21°C° 0.1 mm 3 m/S 754 mmHg 91%
08:00 +22°C° 0 mm 4 m/S 754 mmHg 85%
09:00 +23°C° 0 mm 5 m/S 753 mmHg 79%
10:00 +24°C° 0 mm 6 m/S 753 mmHg 73%
11:00 +24°C° 0 mm 7 m/S 754 mmHg 71%
12:00 +23°C° 0 mm 8 m/S 754 mmHg 68%
13:00 +22°C° 0 mm 9 m/S 754 mmHg 66%
14:00 +21°C° 0 mm 9 m/S 754 mmHg 69%
15:00 +19°C° 0 mm 9 m/S 754 mmHg 73%
16:00 +19°C° 0 mm 9 m/S 754 mmHg 77%
17:00 +18°C° 0 mm 8 m/S 755 mmHg 79%
18:00 +17°C° 0 mm 7 m/S 755 mmHg 82%
19:00 +16°C° 0 mm 6 m/S 755 mmHg 84%
20:00 +15°C° 0 mm 5 m/S 756 mmHg 81%
21:00 +14°C° 0 mm 5 m/S 756 mmHg 79%
22:00 +13°C° 0 mm 4 m/S 757 mmHg 76%
23:00 +13°C° 0 mm 4 m/S 757 mmHg 79%

übermorgen, 20 Juni, Sonntag

Zeit Temperatur Niederschläge Wind Luftdruck Luftfeuchtigkeit
00:00 +12°C° 0 mm 3 m/S 756 mmHg 82%
01:00 +11°C° 0 mm 3 m/S 756 mmHg 84%
02:00 +10°C° 0 mm 2 m/S 756 mmHg 87%
03:00 +10°C° 0 mm 2 m/S 756 mmHg 90%
04:00 +9°C° 0 mm 2 m/S 755 mmHg 92%
05:00 +10°C° 0 mm 2 m/S 755 mmHg 88%
06:00 +12°C° 0 mm 3 m/S 755 mmHg 84%
07:00 +13°C° 0 mm 3 m/S 755 mmHg 79%
08:00 +15°C° 0 mm 4 m/S 754 mmHg 76%
09:00 +16°C° 0 mm 5 m/S 754 mmHg 72%
10:00 +19°C° 0 mm 5 m/S 754 mmHg 69%
11:00 +20°C° 0 mm 6 m/S 753 mmHg 70%
12:00 +21°C° 0 mm 7 m/S 752 mmHg 71%
13:00 +21°C° 0 mm 7 m/S 752 mmHg 73%
14:00 +22°C° 0.3 mm 7 m/S 751 mmHg 75%
15:00 +23°C° 0.3 mm 7 m/S 751 mmHg 77%
16:00 +24°C° 0.3 mm 7 m/S 750 mmHg 80%
17:00 +23°C° 0.2 mm 5 m/S 750 mmHg 83%
18:00 +22°C° 0.2 mm 4 m/S 750 mmHg 85%
19:00 +22°C° 0.2 mm 3 m/S 750 mmHg 88%
20:00 +21°C° 0.3 mm 3 m/S 750 mmHg 91%
21:00 +20°C° 0.3 mm 3 m/S 750 mmHg 93%
22:00 +19°C° 0.3 mm 3 m/S 751 mmHg 96%
23:00 +19°C° 1.2 mm 2 m/S 750 mmHg 97%

21 Juni, Montag

Zeit Temperatur Niederschläge Wind Luftdruck Luftfeuchtigkeit
00:00 +18°C° 1.2 mm 2 m/S 750 mmHg 97%
01:00 +18°C° 1.2 mm 1 m/S 749 mmHg 98%
02:00 +18°C° 2 mm 1 m/S 749 mmHg 98%
03:00 +17°C° 2 mm 2 m/S 749 mmHg 97%
04:00 +17°C° 2 mm 2 m/S 749 mmHg 97%
05:00 +17°C° 0.1 mm 3 m/S 749 mmHg 95%
06:00 +17°C° 0.1 mm 4 m/S 749 mmHg 93%
07:00 +17°C° 0.1 mm 4 m/S 749 mmHg 91%
08:00 +16°C° 0 mm 5 m/S 749 mmHg 88%
09:00 +16°C° 0 mm 5 m/S 749 mmHg 86%
10:00 +17°C° 0 mm 5 m/S 750 mmHg 84%
11:00 +17°C° 0 mm 5 m/S 750 mmHg 82%
12:00 +17°C° 0 mm 6 m/S 750 mmHg 81%
13:00 +19°C° 0 mm 6 m/S 751 mmHg 79%
14:00 +17°C° 0 mm 6 m/S 751 mmHg 80%
15:00 +16°C° 0 mm 6 m/S 751 mmHg 80%
16:00 +16°C° 0 mm 6 m/S 751 mmHg 81%
17:00 +15°C° 0 mm 5 m/S 751 mmHg 82%
18:00 +15°C° 0 mm 5 m/S 752 mmHg 82%
19:00 +14°C° 0 mm 5 m/S 752 mmHg 83%
20:00 +14°C° 0 mm 4 m/S 752 mmHg 85%
21:00 +13°C° 0 mm 4 m/S 752 mmHg 86%
22:00 +13°C° 0 mm 4 m/S 753 mmHg 88%
23:00 +12°C° 0 mm 4 m/S 753 mmHg 88%

22 Juni, Dienstag

Zeit Temperatur Niederschläge Wind Luftdruck Luftfeuchtigkeit
00:00 +11°C° 0 mm 4 m/S 753 mmHg 89%
01:00 +11°C° 0 mm 3 m/S 753 mmHg 89%
02:00 +11°C° 0 mm 3 m/S 753 mmHg 86%
03:00 +12°C° 0 mm 3 m/S 753 mmHg 82%
04:00 +12°C° 0 mm 3 m/S 753 mmHg 79%
05:00 +12°C° 0 mm 4 m/S 754 mmHg 78%
06:00 +13°C° 0 mm 4 m/S 754 mmHg 77%
07:00 +13°C° 0 mm 5 m/S 754 mmHg 77%
08:00 +13°C° 0 mm 5 m/S 754 mmHg 74%
09:00 +14°C° 0 mm 5 m/S 755 mmHg 71%
10:00 +14°C° 0 mm 5 m/S 755 mmHg 69%
11:00 +14°C° 0 mm 6 m/S 755 mmHg 67%
12:00 +15°C° 0 mm 6 m/S 755 mmHg 65%
13:00 +15°C° 0 mm 6 m/S 756 mmHg 64%
14:00 +15°C° 0 mm 6 m/S 756 mmHg 63%
15:00 +15°C° 0 mm 6 m/S 756 mmHg 63%
16:00 +15°C° 0 mm 6 m/S 756 mmHg 62%
17:00 +14°C° 0 mm 6 m/S 756 mmHg 65%
18:00 +13°C° 0 mm 6 m/S 757 mmHg 68%
19:00 +13°C° 0 mm 5 m/S 757 mmHg 71%
20:00 +12°C° 0 mm 5 m/S 757 mmHg 75%
21:00 +10°C° 0 mm 4 m/S 757 mmHg 79%
22:00 +9°C° 0 mm 3 m/S 757 mmHg 83%
23:00 +9°C° 0 mm 3 m/S 757 mmHg 84%

23 Juni, Mittwoch

Zeit Temperatur Niederschläge Wind Luftdruck Luftfeuchtigkeit
00:00 +8°C° 0 mm 3 m/S 757 mmHg 85%
01:00 +8°C° 0 mm 3 m/S 758 mmHg 85%
02:00 +8°C° 0 mm 3 m/S 757 mmHg 85%
03:00 +7°C° 0 mm 4 m/S 757 mmHg 84%
04:00 +7°C° 0 mm 4 m/S 757 mmHg 84%
05:00 +10°C° 0 mm 4 m/S 757 mmHg 80%
06:00 +10°C° 0 mm 5 m/S 757 mmHg 76%
07:00 +12°C° 0 mm 5 m/S 757 mmHg 72%
08:00 +13°C° 0 mm 5 m/S 757 mmHg 70%
09:00 +13°C° 0 mm 5 m/S 757 mmHg 67%
10:00 +14°C° 0 mm 5 m/S 757 mmHg 64%
11:00 +14°C° 0 mm 6 m/S 757 mmHg 63%
12:00 +14°C° 0 mm 6 m/S 757 mmHg 62%
13:00 +14°C° 0 mm 6 m/S 757 mmHg 61%
14:00 +14°C° 0 mm 6 m/S 757 mmHg 60%
15:00 +15°C° 0 mm 7 m/S 757 mmHg 60%
16:00 +15°C° 0 mm 8 m/S 757 mmHg 59%
17:00 +14°C° 0 mm 7 m/S 757 mmHg 63%
18:00 +12°C° 0 mm 7 m/S 758 mmHg 67%
19:00 +11°C° 0 mm 6 m/S 758 mmHg 71%
20:00 +11°C° 0 mm 6 m/S 758 mmHg 68%
21:00 +11°C° 0 mm 6 m/S 758 mmHg 64%
22:00 +11°C° 0 mm 6 m/S 758 mmHg 61%
23:00 +11°C° 0 mm 6 m/S 758 mmHg 63%
Mehr zeigen

Wir brauchen deine Erlaubnis

Meteoprog und unser Service Anbieter werden persönliche Daten aufbewahren, so wie Cookies, Geräte Bezeichnung oder ähnliche Technologien von deinem Gerät und Prozess, so wie Persönliche Daten Inhalte und Werbungen, genauso wie social Media und den Verkehr zu analysieren.

  • Aufbewahrung und/oder Zugang zu deiner Geräte Informationen.

    Cookies, Geräte Bezeichnung oder andere Informationen, können aufbewahrt oder Zugang zu deinem Gerät erhalten, für den Grund, der oben angegeben wird.

  • Personalisierte Werbung und Inhalte, Messungen, Einblick in das Publikum und Produkt Entwicklung.

    Werbungen und Inhalte können personalisiert werden, basierend auf ein Profil. Mehr Daten können besser personalisierte Werbungen und Inhalte hinzufügen. Werbung und Inhalte können gezeigt und gemessen werden. Einblicke über das Publikum, welche die Werbung gesehen haben und den Inhalt, können abgeleitet werden. So wie Daten können genutzt werden, um es zu verbessern oder die Benutzer Erfahrung zu verbessern das System und die Software.

Wenn du “Ich stimme zu” klickst, erlaubst du uns, die Cookies zu benutzen die Geräte Bezeichnung, den Web oder ähnliche Technologien zu benutzen. Deine Settings, können in deinem Gerät bei deinem Browser geändert werden.

Für den bestimmten Zweck, berechtigten Interessen beruhen darauf, mehr als auf den Inhalt. Du kannst mehr darüber in unseren Privaten und Cookie Politik lesen.